Regional Weather Roundup
Issued by NWS Bismarck, ND

Home | Current Version | Previous Version | Text Only | Print | Product List | Glossary On
Versions: 1 2 3 4 5 6 7 8 9 10 11 12 13 14 15 16 17 18 19 20 21 22 23 24 25 26 27 28 29 30 31 32 33 34 35 36 37 38 39 40 41 42 43 44 45 46 47 48 49 50
000
ASUS43 KBIS 310710
RWRBIS

NWR BROADCAST TEXT
NATIONAL WEATHER SERVICE BISMARCK ND
200 AM CDT SAT JUL 31 2021

NOTE: "FAIR" INDICATES FEW OR NO CLOUDS BELOW 12,000 FEET WITH NO
SIGNIFICANT WEATHER AND/OR OBSTRUCTIONS TO VISIBILITY.


CITY           SKY/WX    TMP DP  RH WIND       PRES   REMARKS
WILLISTON      CLEAR     67  47  48 N9        30.22R
MINOT          CLEAR     66  53  63 NW7       30.15R
MINOT AFB      CLEAR     65  42  43 NE5       30.14R
BISMARCK       PTCLDY    70  61  73 SW5       30.12S SMOKE
DICKINSON      CLEAR     68  54  60 N8        30.18R
GARRISON         N/A     62  53  72 N8        30.14S
HETTINGER ARPT CLEAR     63  59  87 CALM      30.19S FOG
JAMESTOWN      CLEAR     71  60  68 W12       30.06R HAZE
CARRINGTON     FAIR      66  59  77 N7        30.11R
HAZEN            N/A     57  57 100 CALM      30.16R
MANDAN         MOCLDY    68  61  77 W8        30.13F HAZE
OAKES          FOG       63  63 100 SW9       30.07F VSB 1
RUGBY          FAIR      63  52  67 N7        30.12R
STANLEY        FAIR      64  52  63 N6        30.20R
TIOGA            N/A     59  48  67 CALM      30.22R
WATFORD CITY   FAIR      63  50  63 CALM      30.20S
$$

CITY           SKY/WX    TMP DP  RH WIND       PRES   REMARKS
GRAND FORKS    PTCLDY    66  56  70 N8        30.01S
GRAND FORKS AF PTCLDY    66  62  89 N7        30.03R
DEVILS LAKE    CLEAR     65  58  78 N8        30.10R
FARGO          PTCLDY    68  61  78 SW8       30.02S HAZE
CANDO            N/A     61  61 100 N8        30.13S FOG
CAVALIER       CLOUDY    66  57  72 NW8       30.05S
GRAFTON        FAIR      66  57  72 NW9         N/A
GWINNER        MOCLDY    64  64 100 SW12      30.06F FOG
LANGDON        FAIR      61  61 100 N7        30.11R
ROLLA          FAIR      61  52  72 NW8       30.15S
WALHALLA       FAIR      64  64 100 CALM      30.06S
$$

CITY           SKY/WX    TMP DP  RH WIND       PRES   REMARKS
ABERDEEN       CLEAR     63  60  90 SW5       30.10F FOG
MOBRIDGE       CLEAR     62  57  83 CALM      30.11S HAZE
BUFFALO          N/A     66  57  72 NW7       30.19R
RAPID CITY     SMOKE     59  57  93 CALM      30.23R VSB 3/4
GLASGOW        CLEAR     72  45  37 E12       30.21R
SIDNEY         CLEAR     68  46  45 NW3       30.20R
WOLF POINT     CLEAR     66  46  48 CALM      30.21R
GLENDIVE       CLEAR     71  45  39 NE7       30.22R
MILES CITY     CLEAR     75  49  39 NE7       30.20R
BAKER          CLEAR     72  50  45 NE10      30.23R
$$

CITY           SKY/WX    TMP DP  RH WIND       PRES   REMARKS
BILLINGS       MOCLDY    79  46  31 E6        30.23R
GREAT FALLS    PTCLDY    74  48  39 SE8       30.20S
REGINA         CLEAR     70  45  40 E2        30.22R
ESTEVAN        CLEAR     57  50  77 NE6       30.20R
$$




USA.gov is the U.S. government's official web portal to all federal, state and local government web resources and services.